Wind_Speed
5 5 3 2 2 2 2 2 2 3 3 5 6 7 7 7 8 8 8 9 10 10 11 11 11 12 12 11 11 11 11 11 11 11 10 8 8 9 11 12 12 12
6 6 5 4 4 5 5 4 3 3 4 5 6 7 7 8 8 8 8 9 10 10 11 12 13 13 13 13 12 12 12 11 11 10 9 8 8 10 12 13 13 12
8 7 6 6 6 5 5 4 4 5 5 6 6 7 7 8 8 9 9 10 10 11 11 12 13 14 13 13 12 13 12 12 12 10 8 9 10 11 13 13 13 13
9 8 7 6 6 5 4 5 6 6 6 6 6 7 7 8 10 10 10 11 11 11 12 13 14 14 13 13 13 12 12 12 12 10 8 9 10 11 12 12 12 12
9 9 8 7 6 6 6 6 6 7 6 6 7 7 8 8 10 11 11 12 12 12 13 13 14 14 13 14 14 13 12 12 11 9 9 9 10 9 10 10 10 11
8 8 8 7 7 7 7 8 8 7 7 8 8 8 8 9 10 11 12 12 13 14 14 14 15 15 15 15 14 13 13 12 11 10 10 10 10 9 9 9 9 10
8 9 8 8 8 8 8 8 8 8 8 9 11 10 10 10 11 11 13 13 14 15 16 16 16 17 17 17 16 15 14 13 13 12 11 12 10 8 7 7 7 9
9 9 9 9 8 8 9 9 9 10 11 11 12 12 11 11 12 12 12 13 15 16 17 17 18 19 18 18 18 17 14 14 14 13 12 12 11 9 7 6 7 9
10 9 9 9 9 9 9 8 9 12 14 13 13 11 11 12 12 13 13 14 16 17 18 18 18 17 17 18 17 15 13 14 15 14 13 13 12 10 8 7 7 7
10 10 10 9 10 10 10 9 11 12 11 10 10 9 10 12 14 15 15 15 16 17 18 18 18 17 18 18 17 16 15 15 15 15 14 14 15 13 9 8 7 7
12 11 11 10 10 10 10 10 10 10 8 8 10 11 12 13 14 15 15 17 18 18 18 18 19 20 20 18 19 21 20 18 17 16 16 16 17 15 12 10 8 8
13 12 12 12 12 11 10 9 8 10 11 11 11 11 11 11 13 15 16 17 18 18 19 18 18 20 21 20 21 20 19 19 19 18 17 18 19 18 15 13 11 11
15 14 13 12 12 12 11 10 9 10 11 11 11 10 10 12 14 16 16 15 16 18 18 17 18 21 22 20 17 15 15 17 18 19 20 21 22 21 17 16 16 15
17 15 15 14 13 11 11 10 10 11 11 12 13 11 11 13 14 14 14 15 17 18 17 18 21 20 17 14 12 12 14 16 17 18 21 24 24 21 18 18 19 19
16 15 15 15 14 13 12 11 11 12 12 13 13 12 12 14 14 13 14 16 17 17 18 19 17 11 9 11 12 12 13 16 17 16 20 23 22 20 20 22 23 22
15 15 15 15 14 13 12 12 12 12 13 14 14 13 12 13 13 13 13 14 15 16 17 14 10 8 10 11 10 11 11 12 14 15 17 19 21 21 23 24 23 23
17 17 17 16 15 13 12 12 13 13 13 14 14 13 12 13 14 14 13 12 13 15 15 11 10 12 11 9 9 10 10 9 11 14 16 18 20 22 23 25 26 26
19 19 19 17 15 14 13 13 14 14 14 15 15 13 12 12 14 14 13 12 13 15 14 12 14 15 12 10 10 10 9 10 13 16 17 18 19 21 24 27 28 24
20 20 20 18 16 14 14 14 15 15 14 15 14 13 12 13 15 14 13 13 14 15 14 15 16 15 12 11 11 10 10 12 15 18 19 20 21 22 24 26 24 20
22 21 19 17 16 15 14 14 15 15 15 15 14 13 14 15 16 14 13 14 14 15 16 16 15 13 12 12 12 11 12 13 15 18 20 21 22 23 24 24 24 22
22 21 18 17 16 15 14 15 15 14 14 15 14 15 16 16 15 13 14 15 15 14 15 14 12 11 12 13 13 13 14 15 16 17 19 20 21 21 22 24 26 26
21 20 19 18 16 16 16 15 14 14 14 15 15 16 18 19 17 15 16 17 15 14 13 11 9 11 13 14 13 14 17 17 17 18 19 20 19 19 21 23 25 24
21 20 20 19 18 17 16 16 16 18 17 15 15 17 21 22 18 17 17 15 13 13 12 11 10 13 15 15 14 15 16 15 15 17 18 18 18 18 19 21 23 22
22 21 20 20 20 18 16 16 17 18 17 17 17 20 22 20 17 17 17 12 10 13 13 13 14 14 15 15 16 17 16 14 14 14 15 16 17 16 17 21 22 20
21 22 21 20 19 17 16 17 16 15 17 20 21 21 20 19 18 18 16 12 11 12 14 14 13 11 12 15 18 18 16 13 13 13 14 16 16 15 17 20 20 17
20 21 21 20 19 16 15 15 15 15 16 17 17 17 18 19 20 17 14 13 13 12 12 13 12 11 13 17 19 18 14 10 10 11 13 15 15 15 17 17 15 13
Wind_Direction
169 167 166 181 182 194 239 226 222 256 280 283 288 296 304 309 306 305 310 312 313 312 311 310 310 310 309 309 310 309 308 307 307 309 314 323 331 331 327 323 322 322
173 175 174 187 206 209 215 215 218 254 273 277 281 285 290 293 293 299 305 307 308 307 305 305 305 305 305 305 307 308 308 306 305 309 317 325 331 328 321 319 323 328
175 182 186 193 210 211 205 212 235 252 257 264 271 276 283 288 291 296 300 301 302 300 301 301 298 299 300 300 303 305 305 303 301 301 307 313 315 316 317 323 327 329
179 185 192 196 207 210 208 224 240 245 251 264 277 286 289 290 292 295 296 297 297 296 299 297 293 292 291 291 292 295 298 298 294 291 293 301 309 314 319 323 324 327
185 184 190 198 202 202 208 226 241 248 257 267 274 280 283 285 290 293 294 295 294 293 294 295 294 291 286 284 284 285 290 290 287 286 289 296 307 313 315 317 322 330
182 186 193 199 200 203 213 228 240 250 262 270 272 271 272 276 283 286 288 289 290 290 289 290 293 293 290 289 287 285 287 286 282 284 291 297 300 303 310 319 325 328
184 192 197 201 205 208 216 231 242 253 265 266 262 263 266 271 274 276 280 283 284 285 286 289 292 295 296 294 290 284 281 284 284 283 290 295 294 293 306 318 318 321
190 196 199 204 210 212 222 234 240 250 260 256 252 259 264 265 268 273 278 281 283 284 285 287 290 293 296 294 292 288 282 280 281 282 287 290 288 291 299 307 308 314
191 199 204 208 211 216 228 239 248 256 257 247 245 256 265 270 273 275 275 276 281 284 284 286 287 286 289 290 289 293 291 284 282 283 284 284 285 290 292 293 300 307
190 200 207 212 217 221 226 235 250 258 255 245 249 263 273 278 276 269 270 275 278 280 281 286 288 286 289 289 282 284 289 287 286 285 284 284 284 284 283 285 287 290
189 200 208 215 220 227 233 239 254 272 279 275 274 274 270 272 275 274 279 282 280 281 283 286 288 289 292 290 282 281 285 287 289 286 280 281 281 280 280 283 280 277
188 199 208 217 219 225 237 245 260 273 273 273 277 278 273 273 280 280 278 280 282 286 286 286 290 292 290 286 280 279 282 285 288 287 281 278 279 281 279 278 276 271
187 198 207 219 222 224 231 236 248 259 263 274 283 286 282 279 279 278 278 285 288 289 290 291 294 295 290 283 277 278 281 280 281 285 284 280 281 281 275 272 275 270
186 197 205 215 220 224 230 234 243 251 255 266 271 271 274 277 279 281 288 294 294 292 291 289 289 290 288 283 283 291 293 289 287 284 275 273 279 281 274 275 277 269
185 197 205 211 217 222 228 233 241 247 249 256 259 259 266 273 277 282 288 291 289 287 286 287 295 308 311 305 308 318 312 296 287 277 268 272 282 283 278 278 276 269
187 202 207 210 215 219 225 232 239 243 247 254 256 256 260 269 273 276 281 285 286 288 290 296 315 337 332 321 319 326 321 298 285 283 284 289 293 289 284 280 275 270
192 203 208 211 214 219 227 234 238 244 250 255 257 257 261 269 271 269 271 279 287 292 292 293 298 303 309 315 308 302 302 300 299 299 296 296 298 297 293 288 283 277
196 203 206 210 211 218 229 235 242 248 254 259 261 259 261 265 267 265 266 271 277 277 276 284 298 298 293 296 301 294 288 297 306 305 300 298 300 303 302 298 294 289
200 204 205 208 210 217 229 238 246 250 253 261 264 264 264 262 261 260 261 268 271 269 271 285 298 299 290 291 298 296 294 303 307 306 303 299 297 303 307 304 299 296
202 205 207 210 213 217 227 239 250 254 258 264 265 265 263 260 257 255 261 271 271 269 276 286 292 293 291 295 301 305 306 307 305 302 298 294 295 302 305 304 307 305
201 203 208 215 218 220 226 238 246 250 258 265 267 267 267 265 261 258 264 270 268 269 279 288 289 285 286 292 303 314 315 309 301 295 291 290 295 302 303 307 318 315
200 203 209 216 221 222 226 236 241 244 255 265 268 270 271 269 264 259 263 267 269 271 271 272 278 281 282 286 297 313 317 310 298 289 286 288 293 301 307 313 319 314
202 205 210 217 220 222 228 238 240 239 242 247 255 261 264 262 259 261 266 268 276 282 266 253 268 279 276 275 288 311 316 308 299 290 283 287 295 301 310 317 318 312
203 208 213 217 217 220 233 242 240 236 236 237 241 249 255 258 260 270 278 273 277 289 282 272 278 279 271 270 285 306 312 304 301 292 278 285 299 302 305 312 320 324
209 212 213 215 218 224 240 248 245 244 245 243 241 243 250 258 262 271 280 273 265 279 288 290 291 285 281 284 290 301 306 300 297 290 281 289 296 293 295 303 316 331
215 216 214 217 221 229 245 256 259 258 251 241 238 241 248 258 263 264 267 263 260 267 283 302 314 306 295 295 296 296 296 295 299 298 294 295 294 290 294 298 309 328
Height
820 821 822 823 824 824 824 825 825 825 825 825 825 825 824 824 823 823 822 822 822 821 820 820 820 819 818 818 817 816 815 815 815 814 814 814 813 813 812 810 809 808
817 819 820 821 822 823 823 823 824 824 824 824 824 824 823 823 822 822 822 821 821 820 820 819 818 818 817 816 815 815 814 814 813 813 813 813 812 812 811 810 809 808
816 817 818 819 820 821 821 822 823 822 823 822 822 822 822 822 821 821 821 820 819 819 818 818 817 816 816 815 814 813 813 813 812 812 812 811 811 811 810 809 808 807
814 815 816 817 818 819 820 821 821 821 821 821 821 821 821 821 821 820 819 819 818 818 817 817 816 815 814 813 812 812 811 812 811 811 811 810 810 809 809 808 808 807
812 813 814 815 816 817 818 819 820 819 819 819 819 819 819 819 819 819 819 818 817 817 816 815 814 813 813 811 811 811 810 810 810 810 810 809 808 808 807 807 806 806
811 812 813 814 814 816 817 817 818 818 818 818 818 817 817 817 817 817 817 817 816 816 815 814 813 812 811 811 810 810 809 809 809 809 808 808 807 806 805 805 804 804
810 811 812 813 813 814 815 816 817 817 817 817 816 816 816 816 816 815 815 815 815 814 813 813 812 811 811 810 809 809 808 808 807 807 807 806 805 804 803 803 802 801
808 810 811 812 812 813 814 815 816 815 815 815 814 815 815 814 814 814 814 814 813 812 812 811 811 810 810 809 808 807 806 806 806 806 805 805 804 803 801 801 800 799
806 808 809 810 811 812 813 814 814 813 812 812 813 813 813 813 813 812 812 812 812 811 810 809 809 808 807 807 806 805 805 804 804 804 804 803 802 801 800 799 798 798
804 806 807 808 809 810 811 812 812 810 810 811 811 811 811 811 811 811 811 810 810 809 808 808 807 805 805 804 803 803 803 802 802 802 802 801 800 799 798 797 797 796
802 804 805 806 808 809 809 809 809 809 809 809 809 809 809 809 809 809 809 809 808 808 807 806 805 804 802 802 801 801 800 800 800 800 799 798 798 797 796 796 795 795
799 801 803 805 806 807 808 808 808 808 807 807 807 807 807 807 807 807 807 806 806 806 805 804 803 802 801 799 799 798 798 798 798 798 797 796 796 795 794 794 794 794
796 798 801 803 804 805 806 806 807 807 806 805 805 805 805 806 805 805 804 804 804 803 803 802 801 801 799 798 797 797 798 797 797 797 796 795 794 793 793 793 792 792
793 797 799 801 803 803 804 805 805 805 804 804 803 803 804 804 803 803 803 802 802 801 801 800 799 798 797 796 797 797 797 796 795 795 795 794 793 792 791 791 790 789
792 795 798 800 801 801 802 802 802 802 802 801 801 801 801 801 801 801 801 801 800 799 799 798 798 797 796 796 796 795 795 794 794 794 794 793 791 790 789 788 787 786
791 795 797 799 799 800 800 799 799 799 798 798 798 798 799 799 799 799 798 798 798 797 797 797 796 795 795 794 794 793 793 793 793 792 792 791 789 787 786 784 783 782
790 794 796 797 797 797 797 796 796 796 795 796 796 796 797 797 797 796 796 796 795 795 795 794 793 792 792 792 791 791 791 791 791 790 789 788 787 785 784 782 780 779
789 792 793 794 794 794 794 793 793 793 794 794 794 794 795 795 795 794 793 793 793 792 792 791 790 790 790 790 790 789 789 789 788 787 786 785 784 782 781 779 777 777
788 789 790 791 790 790 790 790 791 792 792 793 793 793 793 792 792 791 791 791 790 789 789 788 788 788 788 788 788 787 787 787 785 784 783 782 781 779 778 776 775 774
786 786 787 787 786 786 787 787 789 790 791 791 791 791 791 790 790 789 788 788 788 787 787 786 786 787 786 787 786 786 785 784 783 781 780 779 779 778 776 774 772 771
782 783 784 783 783 783 783 785 786 787 788 789 788 789 789 788 788 787 786 786 786 785 785 785 785 785 784 784 784 784 783 782 780 779 777 777 776 775 774 772 770 768
778 779 779 779 780 780 780 782 784 785 786 786 786 787 788 787 786 785 784 784 784 783 783 783 783 783 783 783 782 782 781 779 778 776 775 774 773 773 772 771 768 765
774 775 775 776 776 777 778 780 781 781 782 782 783 784 784 784 782 782 782 782 782 782 781 780 780 781 781 781 781 780 779 777 775 774 772 771 771 770 770 768 767 765
770 771 772 772 773 774 776 777 777 778 778 778 779 779 780 780 779 779 781 781 780 780 779 778 778 778 779 779 779 779 777 775 773 772 771 770 768 768 767 766 765 764
767 768 768 768 770 771 773 774 775 775 774 774 775 776 776 777 777 777 778 779 779 779 778 777 777 777 778 778 777 777 776 774 772 770 769 768 766 766 765 764 764 764
764 765 765 765 767 768 770 772 772 772 772 772 772 774 774 774 775 775 776 777 777 777 776 777 777 779 780 779 777 776 774 772 771 769 768 766 765 764 763 763 763 763